Regional Weather Roundup
Issued by NWS

Home | Current Version | Previous Version | Text Only | Print | Product List | Glossary Off
Versions: 1 2 3 4 5 6 7 8 9 10 11 12 13 14 15 16 17 18 19 20 21 22 23 24 25 26 27 28 29 30 31 32 33 34 35 36 37 38 39 40 41 42 43 44 45 46 47 48 49 50

000
ASUS45 KCYS 021510
RWRWY

WYOMING REGIONAL WEATHER ROUNDUP
NATIONAL WEATHER SERVICE CHEYENNE WY
900 AM MDT THU JUL 02 2015

NOTE:  "FAIR" INDICATES FEW OR NO CLOUDS BELOW 12,000 FEET
WITH NO SIGNIFICANT WEATHER AND/OR OBSTRUCTIONS TO VISIBILITY.

WYZ001-021600-
YELLOWSTONE NATIONAL PARK

CITY           SKY/WX    TMP DP  RH WIND       PRES   REMARKS
LK YELLOWSTONE   N/A     62  46  55 E3        30.39S
W YELLOWSTONE  NOT AVBL

$$
WYZ002>013-054>058-071-098>099-021600-
NORTHERN WYOMING

CITY           SKY/WX    TMP DP  RH WIND       PRES   REMARKS
JACKSON        FAIR      63  48  59 CALM      30.28S
CODY           FAIR      70  52  52 NE6       30.25R
GREYBULL       FAIR      73  51  46 S6        30.16R
WORLAND        FAIR      72  52  49 CALM      30.18S
SHERIDAN       FAIR      73  56  54 NW6       30.18S
BUFFALO        FAIR      68  56  65 N10       30.23S
GILLETTE       FAIR      70  56  61 N9        30.18R
NEWCASTLE      NOT AVBL

$$
WYZ014>020-022>026-101>103-021600-
CENTRAL WYOMING

CITY           SKY/WX    TMP DP  RH WIND       PRES   REMARKS
BIG PINEY      FAIR      67  45  45 S9        30.33R
PINEDALE       FAIR      64  45  48 CALM      30.34R
DUBOIS         NOT AVBL
LANDER         FAIR      70  53  54 VRB3      30.26S
RIVERTON       FAIR      69  52  54 E6        30.26S
CASPER         PTSUNNY   65  57  75 SW5       30.24S
DOUGLAS        FAIR      69  61  75 NW8       30.21S

$$
WYZ021-027>030-104>119-021600-
SOUTHERN WYOMING

CITY           SKY/WX    TMP DP  RH WIND       PRES   REMARKS
EVANSTON       FAIR      70  45  40 CALM      30.31R
FORT BRIDGER   SUNNY     72  43  35 SE8       30.33S
ROCK SPRINGS   FAIR      67  53  61 E9        30.31S
RAWLINS        FAIR      65  55  70 VRB7      30.31R
LARAMIE        FAIR      62  54  74 S7        30.34R
CHEYENNE       FAIR      64  55  72 W8        30.26F
TORRINGTON     FAIR      70  60  70 NW10      30.14F

$$


USA.gov is the U.S. government's official web portal to all federal, state and local government web resources and services.